Location: El Frío
(10.0713°N, 67.9111°W)
Time: 21:43:52
(UTC+00:00)

Daily predictions for brighter satellites

Satellite Brightness Start Highest point End
(mag) Time Altitude Azimuth Time Altitude Azimuth Time Altitude Azimuth
Ariane H10-3 4.3 22:20:28 10° W 22:24:34 71° S 22:51:10 10° E
SMAP 3.3 22:23:57 10° S 22:28:37 81° W 22:33:15 10° NNW
SWAS 4.5 22:24:59 10° S 22:28:56 55° ESE 22:32:55 10° NNE
Delta 168 3.0 22:26:04 10° WNW 22:29:33 73° SSW 22:34:16 10° ESE
COSMOS 2455 2.9 22:23:39 10° SSW 22:29:38 74° ESE 22:35:38 10° NNE
SEDSat Delta rocket 4.5 22:24:50 10° W 22:30:05 44° NNW 22:35:57 10° NE
Cosmos 2058 Rocket 3.1 22:26:09 10° S 22:30:36 85° E 22:35:03 10° N
SPOT 1/Viking Rocket 4.4 22:28:11 10° SE 22:32:35 28° ENE 22:36:59 10° NNE
Landsat 7 3.8 22:28:42 10° SSE 22:33:20 85° E 22:37:59 10° N
Delta 202 4.1 22:28:37 10° W 22:33:48 55° N 22:40:04 10° ENE
Meteor 2-2 Rocket 4.3 22:31:05 10° S 22:36:50 81° E 22:42:29 10° N
USA 59 Rocket 1.0 22:31:43 10° S 22:37:37 43° ESE 22:41:50 10° NE
Cosmos 1655 Rocket 4.1 22:33:20 10° N 22:39:21 53° E 22:45:22 10° SSE
IRS-P3 4.2 22:36:50 10° SSE 22:42:02 57° ENE 22:47:13 10° N
Cosmos 1076 Rocket 3.7 22:40:23 10° N 22:44:33 49° E 22:48:42 10° SSE
ATLAS CENTAUR R/B 0.5 22:42:09 10° NNW 22:45:09 82° WSW 22:48:05 10° SSE
USA 81 4.4 22:41:50 10° NNE 22:46:48 43° E 22:51:45 10° SSE
COSMO-SKYMED 1 2.9 22:43:52 10° N 22:47:55 65° WNW 22:51:59 10° SSW
Cosmos 2221 3.6 22:44:33 10° SSE 22:47:57 24° E 22:51:20 10° NE
Cosmos 1607 4.1 22:42:07 10° N 22:48:14 53° ENE 22:54:23 10° SE
CZ-2D R/B 3.8 22:45:44 10° S 22:48:45 48° W 22:51:46 10° NNW
BlueWalker 3 2.7 22:45:40 10° N 22:48:47 27° NE 22:51:55 10° ESE
Atlas Centaur 2 2.2 22:47:16 10° W 22:50:31 33° NNW 22:53:37 11° NE
Cosmos 1707 4.4 22:52:05 10° ESE 22:52:09 10° ESE 22:52:09 10° ESE
AQUARIUS 4.3 22:48:25 10° S 22:52:48 78° WSW 22:57:12 10° NNW
Resurs 1-3 4.4 22:49:46 10° SE 22:53:24 28° ENE 22:57:03 10° NNE
USA 290 4.4 22:51:41 10° NW 22:54:34 30° WSW 22:57:26 10° SSW
SL-16 R/B 2.2 22:49:34 10° S 22:55:08 64° ESE 23:00:43 10° NNE
BREEZE-M DEB (TANK) 2.6 22:58:18 10° SW 23:01:08 67° NW 23:08:09 10° NE
Cosmos 724 4.2 22:56:15 10° NNW 23:02:06 80° ENE 23:07:51 10° SSE
BREEZE-M DEB (TANK) 3.8 22:59:24 10° NNW 23:03:41 26° NE 23:04:53 21° ENE
Cosmos 2297 Rocket 3.4 23:03:40 10° NNW 23:09:01 45° WSW 23:14:23 10° S
NOSS 2-1 (C) 3.9 23:04:31 10° SSW 23:10:52 85° ESE 23:14:29 16° NNE
S3M 4.2 23:07:02 10° SSE 23:13:10 49° E 23:19:15 10° NNE
Cosmos 1553 Rocket 4.5 23:07:41 10° SSW 23:13:40 61° W 23:19:43 10° N
H-II Stage 2 3.8 23:11:58 10° NNW 23:14:15 13° N 23:15:06 12° NNE
Spot 4 Rocket 4.0 23:09:36 10° SSE 23:14:34 56° ENE 23:19:33 10° N
CZ-4C R/B 3.3 23:06:25 10° NNW 23:14:58 63° ENE 23:24:04 10° SE
YAOGAN 1 2.4 23:12:17 10° SSE 23:16:29 62° ENE 23:20:40 10° N
Cosmos 2278 3.7 23:14:19 10° SSW 23:20:00 83° WNW 23:25:42 10° NNE
Ariane H10+ 3.4 23:09:38 10° W 23:20:03 54° SSW 23:24:36 15° ESE
Intelsat 5-1 Rocket 2.4 23:20:06 10° NW 23:22:31 31° NNE 23:22:31 31° NNE
NOSS 3-1 (A) 4.0 23:21:47 10° SSE 23:24:55 21° ESE 23:24:55 21° ESE
Intercosmos 25 4.5 23:21:46 10° S 23:26:39 88° W 23:34:47 10° N
Palapa 6 Rocket 3.6 23:23:12 10° W 23:26:47 33° NNW 23:27:40 29° NNE
KORONAS-FOTON 3.7 23:23:42 10° SSE 23:26:51 47° ESE 23:26:51 47° ESE
Palapa B4 Rocket 4.2 23:21:17 10° W 23:27:23 38° NNW 23:29:12 28° NNE
Nadezhda 2 Rocket 4.4 23:21:41 10° N 23:27:41 65° E 23:33:45 10° SSE
SL-8 R/B 3.9 23:25:49 10° SW 23:30:30 65° NW 23:32:42 30° NNE
Cosmos 1805 2.9 23:28:45 14° N 23:31:36 78° W 23:34:55 10° S
GPS 2-12 Rocket1 4.0 23:32:04 10° SW 23:35:54 31° SSE 23:36:50 28° SE
Yuri Rocket 4.2 23:30:35 10° WNW 23:39:15 70° NNE 23:42:15 34° E
ATLAS 5 CENTAUR R/B 1.2 23:37:15 10° W 23:38:59 37° NW 23:38:59 37° NW
Cosmos 2263 Rocket 2.1 23:38:09 10° N 23:43:46 63° ENE 23:49:21 10° SSE
Resurs 01 Rocket 3.0 23:40:02 10° SSE 23:42:02 25° SE 23:42:02 25° SE
Cosmos 2360 Rocket 2.1 23:39:39 10° SSW 23:45:19 89° ESE 23:47:52 34° NNE
Cosmos 1745 Rocket 4.0 23:51:46 50° E 23:51:53 50° E 23:57:46 10° SSE
Cosmos 2333 Rocket 3.2 23:47:52 10° SW 23:53:17 45° WNW 23:57:33 16° N
